Hourly Data Report for October 24, 2015

All times are specified in Local Standard Time (LST). Add 1 hour to adjust for Daylight Saving Time where and when it is observed.

QIKIQTARJUAQ A
NUNAVUT

67°32'48.000" N
64°01'54.000" W
5.50 m
2400577
YVM

Download Data

Hourly Data (October 2015)
Hourly Data Report for October 24, 2015
Temp Definition
°C
Dew Point Temp Definition
°C
Rel Hum Definition
%
Wind Dir Definition
10's deg

Wind Spd Definition
km/h
Visibility Definition
km
Stn Press Definition
kPa
Hmdx Definition


Wind Chill Definition


Weather Definition


TIME
00:00 Legend Double Dagger -6.3 -11.7 66 16 5 16.1 100.38   -9 LegendNANA
01:00 Legend Double Dagger -4.5 -10.1 65 18 11 16.1 100.29   -9 LegendNANA
02:00 Legend Double Dagger -5.2 -10.4 67 17 5 16.1 100.21   -7 LegendNANA
03:00 Legend Double Dagger -5.3 -10.2 69 LegendMM 9 16.1 100.12   -9 LegendNANA
04:00 Legend Double Dagger -2.6 -11.0 53 17 21 16.1 99.99   -9 LegendNANA
05:00 Legend Double Dagger -1.9 -11.0 50 16 26 16.1 99.89   -8 LegendNANA
06:00 Legend Double Dagger -2.8 -11.2 53 18 17 16.1 99.80   -8 LegendNANA
07:00 Legend Double Dagger -3.6 -9.3 65 LegendMM 8 16.1 99.73   -7 LegendNANA
08:00 Legend Double Dagger -4.9 -10.3 66 LegendMM 4 16.1 99.65   -7 LegendNANA
09:00 Legend Double Dagger -4.3 -10.5 62   0 16.1 99.53     LegendNANA
10:00 Legend Double Dagger -6.0 -10.5 71   0 16.1 99.42     LegendNANA
11:00 Legend Double Dagger -4.6 -8.4 75 26 5 16.1 99.32   -7 LegendNANA
12:00 Legend Double Dagger -5.0 -9.9 69 LegendMM 4 16.1 99.21   -7 LegendNANA
13:00 Legend Double Dagger -4.1 -8.9 69 LegendMM 8 16.1 99.09   -8 LegendNANA
14:00 Legend Double Dagger -4.6 -8.9 72 11 5 16.1 98.99   -7 LegendNANA
15:00 Legend Double Dagger -4.6 -8.7 73 10 5 16.1 98.95   -7 LegendNANA
16:00 Legend Double Dagger -4.0 -8.2 73 10 5 16.1 98.92   -6 LegendNANA
17:00 Legend Double Dagger -4.0 -7.8 75 5 8 16.1 98.91   -7 LegendNANA
18:00 Legend Double Dagger -4.2 -7.3 79 14 4 16.1 98.84   -6 LegendNANA
19:00 Legend Double Dagger -3.7 -7.5 75 3 5 16.1 98.77   -6 LegendNANA
20:00 Legend Double Dagger -4.9 -7.4 83 12 5 16.1 98.70   -7 LegendNANA
21:00 Legend Double Dagger -4.8 -7.1 84 11 9 16.1 98.62   -9 LegendNANA
22:00 Legend Double Dagger -4.0 -7.1 79 20 11 16.1 98.55   -8 LegendNANA
23:00 Legend Double Dagger -3.8 -7.2 77 18 11 16.1 98.49   -8 LegendNANA

Notes on Data Quality.

Legend

  • E = Estimated
  • M = Missing
  • NA = Not Available
  • ‡ = Partner data that is not subject to review by the National Climate Archives
Date modified: